STARLINK-2041 (47657 NORAD) Tracking and Keplerian Element Data
This shows tracking and keplerian element data for the satellite.
Feedback or suggestion? Click here.
Element | Value |
Catalog | 47657 |
Name | STARLINK-2041 |
Epoch Orbit | 177 |
Epoch Day | 59.91667824 |
Epoch Year | 2021 |
RAAN | 38.6877 |
Inclination | 53.0515 |
Eccentricity | 0.0001146 |
Argument of Perigee | 66.1008 |
Mean Anonmoly | 142.0828 |
Mean Motion | 15.72659795 |
Decay Rate | -0.00991722 |
L1 | 1 47657U 21012AP 21059.91667824 -.00991722 00000-0 -79839-2 0 9995 |
L2 | 2 47657 53.0515 38.6877 0001146 66.1008 142.0828 15.72659795 1778 |
Live tracking and technical data element details for STARLINK-2041 (NORAD 47657). STARLINK-2041 can be tracked NOW for your location showing map with azimuth and elevation plus other details from your city location.
Track the satellite on the map from your city or location and see movement details for azimuth, elevation, latitude, longitude, range, height, and movement on the map or in text.
IsCatalogInMostPopularTable: catalog: 47657, numindb: 4
Update: records affected: 1
GetName: 47657 STARLINK-2041
Hit Count: updated at: Mon, 01 Mar 2021 15:28:39 GMT